RH
44 43 38 36 41 42 36 33 36 38 34 30 29 31 32 32 31 31 28 25 23 21 20 19 18 19 19 18 17 16 15 14 13 13 13 13 13 14 16 16 16 19 21 21 18 18 19 20 24 28 27 24 24 26 28 31 34 37 38 37 39 41 43
40 42 39 35 38 40 38 35 35 36 34 33 35 35 35 33 30 29 27 24 21 18 16 16 16 16 16 16 15 15 14 14 13 12 11 12 12 12 13 13 15 18 20 21 20 18 18 19 21 24 26 25 24 24 26 28 32 35 37 37 38 39 39
34 39 39 36 36 37 37 37 34 33 35 37 39 40 38 36 33 29 26 23 21 18 15 13 13 13 13 13 14 13 13 13 12 12 11 11 11 11 12 12 14 18 20 21 23 22 21 20 20 22 23 24 24 24 25 27 30 32 34 36 38 39 38
32 37 37 37 38 37 37 37 34 33 36 38 40 40 38 38 37 34 30 26 21 18 15 12 11 11 11 11 11 12 12 12 12 11 10 10 10 10 11 11 13 17 19 20 21 23 24 23 22 22 23 23 23 23 22 24 27 30 32 34 36 37 37
31 36 38 37 39 41 39 35 33 33 35 37 39 39 38 38 39 39 36 32 24 16 12 10 10 10 10 10 10 11 11 11 11 12 11 10 10 10 10 10 12 15 19 22 23 23 25 26 25 24 24 23 22 21 21 21 23 26 29 32 34 35 35
30 32 36 37 38 42 40 35 34 33 33 37 39 38 38 37 38 39 39 36 30 22 15 12 11 10 10 10 10 10 11 11 11 11 12 11 10 11 11 12 14 17 20 23 24 24 25 26 27 27 27 27 25 25 22 20 19 21 24 28 32 33 34
29 29 34 38 37 40 39 35 35 35 33 37 40 39 37 36 36 38 40 37 33 28 22 16 12 11 11 10 9 10 10 10 11 11 12 12 12 13 14 15 17 19 21 23 22 23 23 23 24 26 28 29 28 27 25 23 20 19 20 22 26 30 33
26 26 31 35 35 36 38 37 38 38 34 35 38 37 35 35 35 36 38 37 34 30 26 21 15 11 9 9 9 9 9 9 10 11 12 13 13 14 16 18 19 20 23 25 24 24 24 23 22 24 27 28 29 29 28 26 24 22 21 20 22 25 28
25 24 26 31 33 35 38 38 37 35 35 34 34 32 32 33 34 34 36 37 36 32 29 25 20 14 10 8 8 9 10 10 10 10 11 13 14 16 18 20 23 24 26 28 29 29 26 24 23 22 24 26 28 29 28 28 27 26 24 23 22 22 24
27 24 24 28 34 36 38 39 35 32 34 34 29 28 30 32 32 33 35 35 36 35 32 29 25 20 14 10 9 9 10 10 11 12 13 15 16 17 19 22 24 26 27 29 32 32 28 25 24 23 22 23 26 28 28 28 28 28 28 27 25 23 22
30 27 24 27 33 37 38 37 35 34 36 33 27 26 29 30 31 32 32 34 35 36 36 34 30 25 20 14 11 10 10 12 14 15 16 17 18 18 19 22 24 25 26 28 31 31 29 26 25 24 23 22 23 25 26 26 27 27 27 27 26 25 23
30 28 25 26 30 34 36 36 35 37 38 33 28 29 29 29 29 30 31 32 33 35 37 37 35 32 29 23 16 12 11 13 16 18 18 19 20 20 21 22 25 26 26 28 29 30 29 27 25 23 22 20 20 21 23 24 24 24 24 24 24 25 24
27 28 26 27 30 31 32 34 36 37 37 33 31 32 31 31 31 30 30 30 31 33 36 37 37 35 34 33 27 22 17 15 15 17 19 20 21 23 23 24 26 28 28 28 29 29 28 27 25 22 21 20 19 20 21 22 23 22 22 22 23 24 24
26 29 29 30 32 32 31 34 37 37 36 33 34 34 34 34 36 34 32 31 30 31 32 34 36 35 35 36 34 31 25 19 17 17 19 21 22 25 26 27 28 30 30 31 31 30 28 28 27 25 23 23 22 22 22 23 24 24 24 23 23 25 25
26 30 32 32 32 30 31 35 38 39 39 37 35 35 35 35 37 37 36 34 33 32 32 32 34 35 35 36 36 35 32 28 24 21 22 23 24 26 28 29 30 30 31 33 34 33 31 32 33 31 30 28 27 27 26 26 26 26 26 25 25 26 27
25 29 33 32 31 29 29 32 37 39 41 40 37 36 35 34 35 36 36 36 35 35 34 34 35 36 36 38 39 40 40 38 34 30 29 28 27 28 30 32 34 34 35 37 38 38 37 38 40 39 37 35 33 31 30 30 29 28 27 27 26 26 28
25 30 32 31 29 27 26 28 32 35 38 38 37 36 35 34 34 34 35 35 35 35 35 35 36 37 38 39 41 42 42 42 41 38 35 33 32 31 33 36 37 37 38 40 42 43 43 43 43 43 40 39 38 36 34 33 32 30 29 28 28 29 30
23 28 32 33 30 25 24 24 26 27 31 34 35 36 35 34 33 33 32 32 33 33 34 34 34 35 36 36 37 39 39 41 43 43 40 38 37 34 34 37 39 39 40 41 43 44 44 43 43 42 41 39 39 39 38 36 35 34 32 31 31 31 32
21 24 27 31 30 25 25 28 28 27 29 32 34 35 35 34 33 33 31 30 29 30 31 32 32 33 34 34 33 34 35 37 41 45 44 42 41 39 37 38 39 39 39 40 42 44 44 42 40 40 39 39 39 41 41 41 39 37 37 36 35 35 35
21 23 24 26 27 27 27 32 34 32 30 31 34 34 33 31 31 31 30 29 28 28 29 30 31 32 34 34 33 32 31 32 38 45 47 46 45 44 40 38 38 39 40 41 43 43 42 40 39 39 39 38 39 40 41 43 43 41 40 39 39 39 40
20 23 24 26 27 28 28 30 33 31 28 27 30 31 30 28 28 28 28 28 28 28 28 29 29 31 32 33 33 32 30 30 34 42 48 49 49 48 44 39 37 39 43 44 44 43 41 40 40 40 39 39 40 41 41 42 43 44 44 42 42 42 43
20 21 25 29 29 28 26 25 28 29 26 25 25 25 24 24 25 26 27 28 29 29 28 28 28 29 30 30 31 30 30 31 34 39 44 48 50 50 48 43 40 40 44 46 46 45 43 41 40 40 40 41 42 42 41 41 43 45 46 46 46 46 46
25 23 26 30 29 28 26 24 25 26 23 22 23 22 21 21 21 23 24 25 26 27 28 28 29 29 28 27 28 28 31 35 37 39 42 46 49 51 50 48 44 43 45 48 48 48 46 43 41 41 41 42 42 42 41 42 44 46 48 48 49 49 49
27 27 27 27 27 27 25 22 22 20 18 19 21 20 19 18 18 20 21 22 23 24 26 28 29 29 27 26 26 28 33 38 40 40 41 44 46 48 48 48 47 45 46 48 48 48 48 45 43 43 43 43 43 43 44 44 45 47 49 50 51 52 51
27 29 28 26 26 25 21 18 20 21 21 22 24 24 23 20 17 16 18 20 20 21 22 25 27 28 27 25 26 29 35 38 40 40 41 41 42 43 43 44 45 46 47 47 47 48 48 47 46 46 46 46 46 47 47 48 48 49 50 52 54 54 53
26 26 25 24 24 22 19 18 23 27 25 25 25 25 25 23 19 16 15 17 18 17 19 21 23 25 26 25 25 30 35 38 39 40 41 42 43 43 42 42 44 46 48 48 47 48 47 47 48 48 50 51 51 51 51 50 51 51 50 52 53 55 55
27 26 24 23 23 23 22 22 26 28 26 25 23 23 24 24 20 18 16 17 17 17 17 18 19 22 24 24 25 29 34 37 39 41 42 43 45 44 43 42 44 46 47 48 49 49 48 48 49 50 52 53 53 53 52 51 51 50 48 48 49 50 51
29 28 26 23 23 26 25 26 28 28 28 27 26 25 27 27 23 21 19 19 19 19 18 18 19 20 22 23 26 30 33 36 38 41 44 45 45 45 45 45 45 46 47 48 49 50 49 49 50 50 51 52 52 51 51 51 51 49 46 45 45 46 47
30 29 28 25 25 27 26 27 29 29 28 29 27 24 24 26 26 24 22 21 21 22 20 19 20 21 21 23 26 28 31 34 36 39 43 45 46 47 47 47 46 47 48 47 48 49 49 49 49 49 50 51 50 51 51 52 53 51 48 47 47 48 48
30 29 28 27 27 28 27 27 28 28 29 30 28 23 22 25 26 25 24 24 23 23 23 21 21 22 22 23 25 26 28 30 34 38 41 44 46 47 48 47 47 48 50 50 50 51 51 51 51 51 51 51 51 51 52 52 53 53 51 50 50 50 51
32 30 30 28 29 30 28 27 28 28 28 29 29 26 26 28 28 26 27 27 25 24 24 23 22 23 23 23 25 26 27 28 31 35 38 42 45 47 47 47 47 49 51 52 52 53 53 53 53 53 52 52 52 52 52 52 52 53 53 53 53 53 53
34 33 32 30 30 30 29 29 29 28 28 29 31 30 30 31 31 31 31 30 28 26 25 24 23 25 25 25 26 27 27 28 29 32 35 39 42 46 47 47 47 48 51 52 53 53 53 53 54 54 54 54 53 54 54 53 54 54 55 54 53 52 51
38 36 35 34 33 32 31 31 30 28 29 30 32 33 33 32 32 32 32 31 29 29 27 26 26 26 27 28 28 27 28 29 29 31 33 36 39 43 46 47 49 50 52 54 54 54 54 54 55 56 56 55 55 55 55 55 55 56 55 52 49 48 47
39 38 37 37 36 34 33 33 31 30 32 32 33 34 35 34 33 33 32 31 32 31 30 29 29 29 29 28 29 29 29 31 31 31 32 35 37 40 44 47 49 51 54 55 55 55 55 55 55 55 55 54 54 54 53 54 55 54 52 49 48 47 45
39 39 39 38 38 36 35 35 34 34 35 34 34 34 34 34 35 34 34 33 33 33 33 31 30 30 29 29 30 31 31 32 33 33 33 34 36 38 42 45 47 49 51 53 54 55 54 54 53 53 52 53 53 53 52 53 52 51 49 48 46 45 45
40 40 39 40 40 38 37 37 36 37 37 36 35 34 34 34 35 35 35 35 35 35 35 33 32 33 32 31 31 32 32 32 33 34 34 37 38 40 42 42 43 44 47 49 51 53 53 52 51 51 51 51 51 50 49 49 47 45 44 43 42 43 44
42 42 41 40 41 40 40 39 39 39 39 38 36 35 35 34 34 35 36 36 36 37 37 36 36 36 34 33 33 33 33 33 33 33 34 36 39 41 41 40 42 45 46 48 49 50 50 49 48 48 47 46 45 44 43 42 40 39 38 39 40 41 42
42 41 41 42 41 41 40 40 40 41 41 40 38 37 36 35 34 35 36 37 37 37 37 38 37 36 35 35 35 35 34 35 37 37 36 37 40 41 42 43 44 44 45 45 46 46 46 46 44 43 42 41 40 40 39 38 38 37 37 37 38 39 39